| time (UTC) | temp F | wind direction | speed knots | gust knots | rain 1hr in | rain 24hr in | rain mn in | humidity % | barometer mb |
| 20260510083041 | 69 | 165 | 3.5 | 6.1 | 0.00 | 0.01 | 0.00 | 84 | 1010.6 |
| 20260510081533 | 68 | 153 | 3.5 | 5.2 | 0.00 | 0.01 | 0.00 | 85 | 1010.7 |
| 20260510080031 | 68 | 176 | 2.6 | 4.3 | 0.00 | 0.01 | 0.00 | 86 | 1010.9 |
| 20260510074544 | 68 | 189 | 1.7 | 3.5 | 0.00 | 0.01 | 0.00 | 85 | 1010.9 |
| 20260510073035 | 68 | 142 | 1.7 | 4.3 | 0.00 | 0.01 | 0.00 | 84 | 1010.7 |
| 20260510071536 | 68 | 150 | 2.6 | 5.2 | 0.00 | 0.01 | 0.00 | 84 | 1010.6 |
| 20260510070037 | 68 | 146 | 2.6 | 4.3 | 0.00 | 0.01 | 0.00 | 83 | 1010.8 |
| 20260510064531 | 69 | 181 | 2.6 | 4.3 | 0.00 | 0.01 | 0.00 | 83 | 1010.9 |
| 20260510063037 | 69 | 171 | 2.6 | 4.3 | 0.00 | 0.01 | 0.00 | 82 | 1011.0 |
| 20260510061535 | 69 | 143 | 2.6 | 4.3 | 0.00 | 0.01 | 0.00 | 83 | 1011.0 |
| 20260510060040 | 69 | 174 | 2.6 | 4.3 | 0.00 | 0.01 | 0.00 | 84 | 1011.0 |
| 20260510054535 | 69 | 138 | 2.6 | 4.3 | 0.00 | 0.01 | 0.00 | 82 | 1011.0 |
| 20260510053038 | 70 | 143 | 4.3 | 5.2 | 0.00 | 0.01 | 0.00 | 81 | 1011.0 |
| 20260510051536 | 71 | 168 | 3.5 | 6.1 | 0.00 | 0.01 | 0.00 | 78 | 1011.1 |
| 20260510050037 | 72 | 143 | 5.2 | 7.8 | 0.00 | 0.01 | 0.00 | 78 | 1011.0 |
| 20260510044536 | 71 | 119 | 5.2 | 7.0 | 0.00 | 0.01 | 0.01 | 79 | 1011.0 |
| 20260510043035 | 72 | 127 | 3.5 | 5.2 | 0.00 | 0.01 | 0.01 | 78 | 1011.1 |
| 20260510041546 | 72 | 110 | 2.6 | 5.2 | 0.00 | 0.01 | 0.01 | 77 | 1011.2 |
| 20260510040037 | 73 | 88 | 2.6 | 4.3 | 0.00 | 0.01 | 0.01 | 75 | 1011.2 |
| 20260510034534 | 72 | 91 | 2.6 | 5.2 | 0.00 | 0.01 | 0.01 | 75 | 1011.0 |
| 20260510033039 | 72 | 120 | 2.6 | 4.3 | 0.00 | 0.01 | 0.01 | 76 | 1010.9 |
| 20260510031534 | 71 | 131 | 0.9 | 2.6 | 0.00 | 0.01 | 0.01 | 78 | 1010.7 |
| 20260510030038 | 72 | 143 | 0.9 | 0.9 | 0.00 | 0.01 | 0.01 | 75 | 1010.7 |
| 20260510024537 | 72 | 112 | 0.9 | 1.7 | 0.00 | 0.01 | 0.01 | 76 | 1010.5 |
| 20260510023035 | 73 | 0 | 0.0 | 1.7 | 0.00 | 0.01 | 0.01 | 76 | 1010.2 |
| 20260510021537 | 75 | 128 | 0.9 | 1.7 | 0.00 | 0.01 | 0.01 | 70 | 1010.0 |
| 20260510020036 | 78 | 94 | 0.9 | 1.7 | 0.00 | 0.01 | 0.01 | 60 | 1009.8 |
| 20260510014538 | 78 | 0 | 0.0 | 0.0 | 0.00 | 0.01 | 0.01 | 61 | 1009.6 |
| 20260510013040 | 79 | 0 | 0.0 | 0.0 | 0.00 | 0.01 | 0.01 | 63 | 1009.3 |
| 20260510011535 | 83 | 0 | 0.0 | 0.0 | 0.00 | 0.01 | 0.01 | 53 | 1009.2 |
| 20260510010032 | 88 | 0 | 0.0 | 0.0 | 0.00 | 0.01 | 0.01 | 49 | 1009.1 |
| 20260510004534 | 93 | 0 | 0.0 | 0.0 | 0.00 | 0.01 | 0.01 | 43 | 1009.1 |
| 20260510003046 | 93 | 0 | 0.0 | 0.0 | 0.00 | 0.01 | 0.01 | 40 | 1009.0 |
| 20260510001541 | 92 | 214 | 0.0 | 1.7 | 0.00 | 0.01 | 0.01 | 39 | 1009.1 |
| 20260510000043 | 90 | 219 | 1.7 | 3.5 | 0.00 | 0.01 | 0.01 | 39 | 1009.2 |
| 20260509234539 | 90 | 288 | 1.7 | 5.2 | 0.00 | 0.01 | 0.01 | 40 | 1009.1 |
| 20260509233034 | 92 | 298 | 1.7 | 4.3 | 0.00 | 0.01 | 0.01 | 39 | 1009.2 |
| 20260509231531 | 91 | 143 | 0.9 | 6.1 | 0.00 | 0.01 | 0.01 | 41 | 1009.2 |
| 20260509230036 | 90 | 200 | 3.5 | 6.1 | 0.00 | 0.01 | 0.01 | 42 | 1009.1 |
| 20260509224535 | 89 | 214 | 2.6 | 8.7 | 0.00 | 0.01 | 0.01 | 41 | 1009.2 |
| 20260509223035 | 89 | 277 | 3.5 | 6.1 | 0.00 | 0.01 | 0.01 | 45 | 1009.1 |
| 20260509221533 | 89 | 284 | 2.6 | 13.0 | 0.00 | 0.01 | 0.01 | 44 | 1009.2 |
| 20260509220054 | 88 | 197 | 2.6 | 5.2 | 0.00 | 0.01 | 0.01 | 50 | 1009.2 |
| 20260509214540 | 88 | 194 | 2.6 | 6.1 | 0.00 | 0.01 | 0.01 | 48 | 1009.3 |
| 20260509213039 | 87 | 193 | 3.5 | 7.8 | 0.00 | 0.01 | 0.01 | 49 | 1009.4 |
| 20260509211542 | 86 | 122 | 2.6 | 7.0 | 0.00 | 0.01 | 0.01 | 49 | 1009.5 |
| 20260509210036 | 85 | 275 | 3.5 | 7.0 | 0.00 | 0.01 | 0.01 | 51 | 1009.8 |
| 20260509204542 | 85 | 166 | 2.6 | 8.7 | 0.00 | 0.01 | 0.01 | 51 | 1010.3 |
| 20260509203037 | 85 | 201 | 1.7 | 6.1 | 0.00 | 0.01 | 0.01 | 52 | 1010.4 |
| 20260509201535 | 84 | 278 | 2.6 | 7.8 | 0.00 | 0.01 | 0.01 | 52 | 1010.7 |
| 20260509200041 | 84 | 221 | 2.6 | 6.1 | 0.00 | 0.01 | 0.01 | 56 | 1010.9 |
| 20260509194541 | 85 | 216 | 1.7 | 4.3 | 0.00 | 0.01 | 0.01 | 58 | 1011.1 |
| 20260509193041 | 83 | 218 | 4.3 | 7.8 | 0.00 | 0.01 | 0.01 | 58 | 1011.3 |
| 20260509191533 | 83 | 226 | 3.5 | 7.8 | 0.00 | 0.01 | 0.01 | 58 | 1011.4 |
| 20260509190032 | 83 | 221 | 3.5 | 6.1 | 0.00 | 0.01 | 0.01 | 62 | 1011.4 |
| 20260509184539 | 82 | 160 | 3.5 | 7.8 | 0.00 | 0.01 | 0.01 | 58 | 1011.5 |
| 20260509183036 | 81 | 238 | 5.2 | 8.7 | 0.00 | 0.01 | 0.01 | 61 | 1011.6 |
| 20260509181536 | 81 | 181 | 3.5 | 7.0 | 0.00 | 0.01 | 0.01 | 63 | 1011.9 |
| 20260509180033 | 81 | 273 | 1.7 | 7.0 | 0.00 | 0.01 | 0.01 | 68 | 1012.0 |
| 20260509174536 | 80 | 210 | 1.7 | 7.0 | 0.00 | 0.01 | 0.01 | 67 | 1012.2 |
| 20260509173043 | 80 | 223 | 3.5 | 7.8 | 0.00 | 0.01 | 0.01 | 67 | 1012.4 |
| 20260509171538 | 80 | 302 | 1.7 | 6.1 | 0.00 | 0.01 | 0.01 | 70 | 1012.4 |
| 20260509170040 | 79 | 184 | 2.6 | 8.7 | 0.00 | 0.01 | 0.01 | 73 | 1012.5 |
| 20260509164535 | 78 | 293 | 0.9 | 5.2 | 0.00 | 0.01 | 0.01 | 73 | 1012.7 |
| 20260509163039 | 77 | 282 | 0.9 | 4.3 | 0.00 | 0.01 | 0.01 | 75 | 1012.8 |
| 20260509161537 | 77 | 227 | 0.0 | 3.5 | 0.00 | 0.01 | 0.01 | 76 | 1012.9 |
| 20260509160036 | 76 | 97 | 2.6 | 4.3 | 0.00 | 0.01 | 0.01 | 79 | 1012.8 |
| 20260509154535 | 75 | 203 | 1.7 | 5.2 | 0.00 | 0.01 | 0.01 | 78 | 1012.7 |
| 20260509153034 | 74 | 309 | 0.9 | 5.2 | 0.00 | 0.01 | 0.01 | 82 | 1012.3 |
| 20260509151534 | 73 | 197 | 0.9 | 4.3 | 0.00 | 0.01 | 0.01 | 84 | 1012.3 |
| 20260509150033 | 72 | 238 | 2.6 | 4.3 | 0.00 | 0.01 | 0.01 | 83 | 1012.2 |
| 20260509144546 | 71 | 314 | 1.7 | 5.2 | 0.00 | 0.01 | 0.01 | 86 | 1012.3 |
| 20260509143040 | 70 | 229 | 3.5 | 7.8 | 0.00 | 0.01 | 0.01 | 87 | 1012.0 |
| 20260509141538 | 69 | 216 | 2.6 | 5.2 | 0.00 | 0.01 | 0.01 | 87 | 1012.2 |
| 20260509140056 | 71 | 248 | 0.9 | 5.2 | 0.00 | 0.01 | 0.01 | 85 | 1012.1 |
| 20260509134534 | 68 | 246 | 1.7 | 3.5 | 0.00 | 0.01 | 0.01 | 90 | 1012.1 |
| 20260509133038 | 68 | 228 | 1.7 | 4.3 | 0.00 | 0.01 | 0.01 | 89 | 1012.1 |
| 20260509131542 | 69 | 217 | 0.9 | 3.5 | 0.00 | 0.01 | 0.01 | 88 | 1011.8 |
| 20260509130034 | 68 | 252 | 1.7 | 2.6 | 0.00 | 0.01 | 0.01 | 89 | 1011.7 |
| 20260509124536 | 67 | 293 | 1.7 | 4.3 | 0.00 | 0.01 | 0.01 | 92 | 1011.7 |
| 20260509123035 | 65 | 275 | 1.7 | 4.3 | 0.00 | 0.01 | 0.01 | 95 | 1011.9 |
| 20260509121548 | 63 | 326 | 0.9 | 4.3 | 0.00 | 0.01 | 0.01 | 96 | 1011.8 |
| 20260509120037 | 63 | 210 | 3.5 | 6.1 | 0.00 | 0.01 | 0.01 | 96 | 1011.3 |
| 20260509114534 | 63 | 208 | 2.6 | 7.0 | 0.00 | 0.01 | 0.01 | 96 | 1011.5 |
| 20260509113035 | 64 | 153 | 7.0 | 8.7 | 0.00 | 0.01 | 0.01 | 96 | 1011.7 |
| 20260509111535 | 64 | 130 | 6.1 | 8.7 | 0.00 | 0.01 | 0.01 | 96 | 1012.3 |
| 20260509110038 | 64 | 92 | 6.1 | 10.4 | 0.00 | 0.01 | 0.01 | 96 | 1012.4 |
| 20260509104535 | 63 | 37 | 4.3 | 7.8 | 0.00 | 0.01 | 0.01 | 96 | 1012.8 |
| 20260509103103 | 61 | 69 | 1.7 | 2.6 | 0.00 | 0.01 | 0.01 | 96 | 1012.2 |
| 20260509101533 | 62 | 139 | 0.9 | 1.7 | 0.00 | 0.01 | 0.01 | 95 | 1012.2 |
| 20260509100034 | 63 | 35 | 0.0 | 1.7 | 0.00 | 0.01 | 0.01 | 96 | 1012.3 |
| 20260509094537 | 63 | 326 | 2.6 | 4.3 | 0.01 | 0.01 | 0.01 | 96 | 1012.4 |
| 20260509093035 | 63 | 316 | 1.7 | 5.2 | 0.01 | 0.01 | 0.01 | 96 | 1012.3 |
| 20260509091535 | 63 | 17 | 4.3 | 7.0 | 0.01 | 0.01 | 0.01 | 96 | 1012.4 |
| 20260509090035 | 63 | 335 | 6.1 | 10.4 | 0.00 | 0.00 | 0.00 | 96 | 1012.1 |
| 20260509084542 | 63 | 226 | 0.0 | 5.2 | 0.00 | 0.00 | 0.00 | 96 | 1010.9 |